Home   Weather   Le Havre   Past weeks

Flag for France Past Weather in Le Havre, Upper Normandy, France — Yesterday and Last 2 Weeks

Now
54 °F

Passing clouds.


Feels Like: 51 °F
Forecast: 42 / 58 °F
Wind: 8 mph from North

Location: La Heve

Current Time: Apr 23, 2017 at 8:22:52 pm

Latest Report: Apr 23, 2017 at 7:30 pm


Visibility: N/A

Pressure: 30.24 "Hg

Humidity: 58%

Dew Point: 39 °F

Location of Le HavreLocation

Past Weather in Le Havre — Graph

°F

Le Havre Temperature Yesterday

Maximum temperature yesterday: 57 °F (at 12:30 pm)
Minimum temperature yesterday: 45 °F (at 12:00 am)
Average temperature yesterday: 51 °F

High & Low Weather Summary for the Past Weeks

 TemperatureHumidityPressure
High77 °F (Apr 9, 5:00 pm)100% (Apr 9, 8:30 pm)30.63 "Hg (Apr 9, 8:30 pm)
Low34 °F (Apr 21, 7:30 am)30% (Apr 9, 5:00 pm)30.07 "Hg (Apr 13, 5:30 pm)
Average49 °F78%30.29 "Hg
* Reported Apr 8 7:00 pm — Apr 23 7:00 pm, Le Havre, Weather by CustomWeather, © 2017

Note: Actual official high and low records may vary slightly from our data, if they occured in-between our weather recording intervals... More about our weather records

Advertising

Le Havre Weather History for the Previous 24 Hours

Scroll right to see more
 ConditionsComfort  
Time TempWeatherWind HumidityBarometerVisibility
7:00 pm
Sun, Apr 23
54 °FSunny.8 mph58%30.24 "Hg10 mi
6:30 pm54 °FSunny.9 mph63%30.24 "Hg10 mi
6:00 pm54 °FSunny.9 mph63%30.27 "Hg10 mi
5:30 pm55 °FPassing clouds.9 mph59%30.27 "HgN/A
5:00 pm55 °FPassing clouds.7 mph59%30.27 "HgN/A
4:30 pm55 °FPassing clouds.8 mph59%30.30 "HgN/A
4:00 pm55 °FPassing clouds.8 mph55%30.30 "HgN/A
3:00 pm55 °FPassing clouds.8 mph55%30.30 "HgN/A
2:30 pm54 °FSunny.8 mph58%30.33 "Hg10 mi
2:00 pm54 °FPassing clouds.7 mph58%30.33 "HgN/A
1:30 pm54 °FPartly sunny.7 mph63%30.33 "HgN/A
1:00 pm54 °FPartly sunny.7 mph67%30.33 "HgN/A
12:30 pm54 °FPartly sunny.3 mph54%30.33 "HgN/A
12:00 pm54 °FPassing clouds.5 mph54%30.36 "HgN/A
11:30 am54 °FPassing clouds.7 mph54%30.36 "HgN/A
11:00 am52 °FPassing clouds.8 mph58%30.36 "HgN/A
10:30 am50 °FSunny.8 mph58%30.36 "Hg10 mi
10:00 am48 °FPassing clouds.7 mph62%30.36 "HgN/A
9:30 am46 °FScattered clouds.6 mph71%30.36 "HgN/A
9:00 am45 °FSunny.6 mph81%30.36 "Hg10 mi
8:30 am45 °FSunny.5 mph81%30.36 "Hg10 mi
8:00 am43 °FOvercast.5 mph87%30.33 "HgN/A
7:30 am41 °FSunny.3 mph87%30.33 "Hg10 mi
7:00 am43 °FSunny.5 mph87%30.33 "Hg10 mi
6:30 am43 °FClear.5 mph87%30.33 "Hg10 mi
6:00 am41 °FOvercast.3 mph93%30.33 "HgN/A
5:30 am41 °FPassing clouds.3 mph93%30.33 "HgN/A
4:30 am41 °FClear.7 mph93%30.33 "Hg10 mi
4:00 am43 °FClear.7 mph93%30.33 "Hg10 mi
3:30 am43 °FClear.7 mph93%30.33 "Hg10 mi
3:00 am43 °FClear.6 mph93%30.33 "Hg10 mi
2:30 am43 °FClear.6 mph93%30.36 "Hg10 mi
2:00 am43 °FClear.5 mph93%30.36 "Hg10 mi
1:30 am45 °FClear.5 mph93%30.36 "Hg10 mi
1:00 am45 °FClear.3 mph93%30.36 "Hg10 mi
12:30 am45 °FClear.5 mph87%30.33 "Hg10 mi
12:00 am46 °FClear.3 mph87%30.33 "Hg10 mi
11:30 pm
Sat, Apr 22
46 °FClear.3 mph87%30.36 "Hg10 mi
11:00 pm46 °FClear.5 mph87%30.33 "Hg10 mi
10:30 pm46 °FClear.5 mph87%30.33 "Hg10 mi
10:00 pm46 °FClear.6 mph87%30.33 "Hg10 mi
9:30 pm46 °FClear.5 mph87%30.33 "Hg10 mi
8:30 pm50 °FSunny.9 mph82%30.33 "Hg10 mi
8:00 pm52 °FSunny.13 mph77%30.33 "Hg10 mi
Weather by CustomWeather, © 2017

See weather overviewHow to use our weather pages